| time (UTC) | temp F | wind direction | speed MPH | gust MPH | rain 1hr in | rain 24hr in | rain mn in | humidity % | barometer mb |
| 20260510204637 | 65 | 359 | 5.0 | 8.0 | 0.00 | 0.00 | 0.01 | 55 | 1014.0 |
| 20260510204136 | 66 | 155 | 4.0 | 6.0 | 0.00 | 0.00 | 0.01 | 55 | 1013.7 |
| 20260510203635 | 65 | 319 | 2.0 | 3.0 | 0.00 | 0.00 | 0.01 | 58 | 1013.7 |
| 20260510203137 | 64 | 329 | 3.0 | 5.0 | 0.00 | 0.00 | 0.01 | 59 | 1013.7 |
| 20260510202636 | 65 | 340 | 4.0 | 7.0 | 0.00 | 0.00 | 0.01 | 57 | 1014.0 |
| 20260510202236 | 65 | 326 | 3.0 | 8.0 | 0.00 | 0.00 | 0.01 | 58 | 1013.7 |
| 20260510201634 | 65 | 315 | 2.0 | 5.0 | 0.00 | 0.00 | 0.01 | 58 | 1013.7 |
| 20260510201135 | 64 | 325 | 2.0 | 3.0 | 0.00 | 0.00 | 0.01 | 59 | 1014.0 |
| 20260510200634 | 64 | 330 | 7.0 | 10.0 | 0.00 | 0.00 | 0.01 | 60 | 1014.0 |
| 20260510200134 | 65 | 327 | 6.0 | 9.0 | 0.00 | 0.00 | 0.01 | 62 | 1014.0 |
| 20260510195633 | 64 | 187 | 2.0 | 3.0 | 0.00 | 0.00 | 0.01 | 64 | 1013.8 |
| 20260510195134 | 64 | 302 | 5.0 | 8.0 | 0.00 | 0.00 | 0.01 | 62 | 1014.0 |
| 20260510194633 | 64 | 324 | 3.0 | 6.0 | 0.00 | 0.00 | 0.01 | 64 | 1014.0 |
| 20260510194132 | 63 | 323 | 3.0 | 3.0 | 0.00 | 0.00 | 0.01 | 65 | 1014.0 |
| 20260510193634 | 64 | 350 | 7.0 | 14.0 | 0.00 | 0.00 | 0.01 | 65 | 1014.0 |
| 20260510193133 | 65 | 348 | 7.0 | 13.0 | 0.00 | 0.00 | 0.01 | 64 | 1014.0 |
| 20260510192632 | 65 | 356 | 3.0 | 6.0 | 0.00 | 0.00 | 0.01 | 65 | 1014.0 |
| 20260510192131 | 64 | 290 | 5.0 | 9.0 | 0.00 | 0.00 | 0.01 | 66 | 1014.0 |
| 20260510191630 | 64 | 298 | 7.0 | 8.0 | 0.00 | 0.00 | 0.01 | 66 | 1014.0 |
| 20260510191132 | 65 | 334 | 4.0 | 8.0 | 0.00 | 0.00 | 0.01 | 67 | 1014.4 |
| 20260510190731 | 64 | 305 | 4.0 | 7.0 | 0.00 | 0.00 | 0.01 | 68 | 1014.0 |
| 20260510190131 | 64 | 321 | 5.0 | 7.0 | 0.00 | 0.00 | 0.01 | 68 | 1014.0 |
| 20260510185629 | 65 | 13 | 6.0 | 10.0 | 0.00 | 0.00 | 0.01 | 66 | 1014.0 |
| 20260510185133 | 65 | 263 | 5.0 | 7.0 | 0.00 | 0.00 | 0.01 | 67 | 1014.0 |
| 20260510184129 | 65 | 337 | 4.0 | 6.0 | 0.00 | 0.00 | 0.01 | 68 | 1014.0 |
| 20260510183628 | 62 | 59 | 2.0 | 5.0 | 0.00 | 0.00 | 0.01 | 72 | 1014.0 |
| 20260510183129 | 63 | 348 | 1.0 | 3.0 | 0.00 | 0.00 | 0.01 | 70 | 1014.0 |
| 20260510182128 | 64 | 347 | 4.0 | 8.0 | 0.00 | 0.00 | 0.01 | 70 | 1014.0 |
| 20260510181627 | 64 | 327 | 3.0 | 5.0 | 0.00 | 0.00 | 0.01 | 70 | 1014.0 |
| 20260510180729 | 64 | 324 | 4.0 | 6.0 | 0.00 | 0.00 | 0.01 | 69 | 1014.0 |
| 20260510180127 | 65 | 16 | 4.0 | 7.0 | 0.00 | 0.00 | 0.01 | 69 | 1013.7 |
| 20260510175627 | 64 | 342 | 2.0 | 5.0 | 0.00 | 0.00 | 0.01 | 71 | 1013.7 |
| 20260510175125 | 64 | 297 | 2.0 | 3.0 | 0.00 | 0.00 | 0.01 | 72 | 1013.8 |
| 20260510174624 | 63 | 306 | 9.0 | 11.0 | 0.00 | 0.00 | 0.01 | 71 | 1014.0 |
| 20260510174125 | 63 | 338 | 7.0 | 10.0 | 0.00 | 0.00 | 0.01 | 72 | 1014.0 |
| 20260510173624 | 64 | 349 | 9.0 | 11.0 | 0.00 | 0.00 | 0.01 | 72 | 1014.0 |
| 20260510173125 | 64 | 113 | 3.0 | 6.0 | 0.00 | 0.00 | 0.01 | 72 | 1014.0 |
| 20260510172726 | 64 | 254 | 2.0 | 3.0 | 0.00 | 0.00 | 0.01 | 74 | 1014.0 |
| 20260510172123 | 62 | 80 | 3.0 | 5.0 | 0.00 | 0.00 | 0.01 | 76 | 1013.8 |
| 20260510161118 | 58 | 70 | 2.0 | 3.0 | 0.00 | 0.00 | 0.01 | 92 | 1013.7 |
| 20260510160620 | 58 | 226 | 4.0 | 6.0 | 0.00 | 0.00 | 0.01 | 92 | 1014.0 |
| 20260510160119 | 58 | 129 | 6.0 | 9.0 | 0.00 | 0.00 | 0.01 | 91 | 1014.0 |
| 20260510155617 | 58 | 94 | 3.0 | 6.0 | 0.00 | 0.00 | 0.01 | 92 | 1013.7 |
| 20260510155116 | 57 | 320 | 1.0 | 2.0 | 0.00 | 0.00 | 0.01 | 94 | 1014.0 |
| 20260510154615 | 56 | 347 | 1.0 | 1.0 | 0.00 | 0.00 | 0.01 | 96 | 1014.0 |
| 20260510154116 | 55 | 109 | 3.0 | 5.0 | 0.00 | 0.00 | 0.01 | 96 | 1014.0 |
| 20260510153645 | 55 | 138 | 4.0 | 6.0 | 0.00 | 0.00 | 0.01 | 96 | 1014.0 |
| 20260510153145 | 55 | 322 | 2.0 | 2.0 | 0.00 | 0.00 | 0.01 | 97 | 1014.0 |
| 20260510152644 | 55 | 134 | 3.0 | 6.0 | 0.00 | 0.00 | 0.01 | 97 | 1014.0 |
| 20260510152145 | 55 | 210 | 4.0 | 8.0 | 0.00 | 0.00 | 0.01 | 98 | 1013.7 |
| 20260510151644 | 54 | 40 | 3.0 | 5.0 | 0.00 | 0.00 | 0.01 | 99 | 1013.7 |
| 20260510151143 | 53 | 23 | 2.0 | 3.0 | 0.00 | 0.00 | 0.01 | 99 | 1013.3 |
| 20260510150643 | 53 | 148 | 6.0 | 9.0 | 0.00 | 0.00 | 0.01 | 99 | 1013.5 |
| 20260510150144 | 52 | 98 | 3.0 | 6.0 | 0.00 | 0.00 | 0.01 | 99 | 1013.3 |
| 20260510145643 | 52 | 96 | 3.0 | 5.0 | 0.00 | 0.00 | 0.01 | 99 | 1013.3 |
| 20260510145142 | 52 | 77 | 4.0 | 5.0 | 0.00 | 0.00 | 0.01 | 99 | 1013.7 |
| 20260510144647 | 51 | 81 | 3.0 | 5.0 | 0.00 | 0.00 | 0.01 | 99 | 1013.7 |
| 20260510144145 | 51 | 125 | 3.0 | 5.0 | 0.00 | 0.00 | 0.01 | 99 | 1013.7 |
| 20260510143642 | 51 | 93 | 3.0 | 6.0 | 0.00 | 0.00 | 0.01 | 99 | 1013.5 |
| 20260510143141 | 51 | 29 | 1.0 | 3.0 | 0.00 | 0.00 | 0.01 | 99 | 1013.7 |
| 20260510142640 | 50 | 97 | 4.0 | 6.0 | 0.00 | 0.00 | 0.01 | 99 | 1013.7 |
| 20260510142140 | 51 | 138 | 5.0 | 8.0 | 0.00 | 0.00 | 0.01 | 99 | 1013.7 |
| 20260510141641 | 50 | 177 | 2.0 | 3.0 | 0.00 | 0.00 | 0.01 | 99 | 1013.7 |
| 20260510141140 | 50 | 128 | 4.0 | 8.0 | 0.00 | 0.00 | 0.01 | 99 | 1013.3 |
| 20260510140639 | 50 | 265 | 3.0 | 3.0 | 0.00 | 0.00 | 0.01 | 99 | 1013.3 |
| 20260510140140 | 51 | 166 | 4.0 | 5.0 | 0.00 | 0.00 | 0.01 | 99 | 1013.5 |
| 20260510135639 | 50 | 149 | 5.0 | 6.0 | 0.00 | 0.00 | 0.01 | 99 | 1013.3 |
| 20260510135140 | 50 | 112 | 4.0 | 5.0 | 0.00 | 0.00 | 0.01 | 99 | 1013.3 |
| 20260510134639 | 50 | 18 | 2.0 | 3.0 | 0.00 | 0.00 | 0.01 | 99 | 1013.7 |
| 20260510134138 | 50 | 203 | 3.0 | 5.0 | 0.00 | 0.00 | 0.01 | 99 | 1013.3 |
| 20260510133739 | 50 | 141 | 3.0 | 5.0 | 0.00 | 0.00 | 0.01 | 99 | 1013.3 |
| 20260510133137 | 50 | 133 | 6.0 | 9.0 | 0.00 | 0.00 | 0.01 | 99 | 1013.7 |
| 20260510132638 | 50 | 324 | 1.0 | 1.0 | 0.00 | 0.00 | 0.01 | 99 | 1013.7 |
| 20260510132137 | 50 | 110 | 5.0 | 6.0 | 0.00 | 0.00 | 0.01 | 99 | 1013.7 |
| 20260510131636 | 50 | 129 | 5.0 | 7.0 | 0.00 | 0.00 | 0.01 | 99 | 1013.7 |
| 20260510131135 | 50 | 145 | 3.0 | 5.0 | 0.00 | 0.00 | 0.01 | 99 | 1013.7 |
| 20260510130137 | 50 | 209 | 5.0 | 7.0 | 0.00 | 0.00 | 0.01 | 99 | 1013.5 |
| 20260510125635 | 50 | 201 | 5.0 | 6.0 | 0.00 | 0.00 | 0.01 | 99 | 1013.3 |
| 20260510125134 | 49 | 163 | 7.0 | 9.0 | 0.00 | 0.00 | 0.01 | 99 | 1013.3 |
| 20260510124635 | 49 | 170 | 4.0 | 6.0 | 0.00 | 0.00 | 0.01 | 99 | 1013.3 |
| 20260510124236 | 50 | 147 | 6.0 | 8.0 | 0.00 | 0.00 | 0.01 | 99 | 1013.5 |
| 20260510123634 | 49 | 158 | 5.0 | 6.0 | 0.00 | 0.00 | 0.01 | 99 | 1013.7 |
| 20260510123133 | 49 | 270 | 3.0 | 5.0 | 0.00 | 0.00 | 0.01 | 99 | 1013.3 |
| 20260510122732 | 49 | 165 | 6.0 | 9.0 | 0.00 | 0.00 | 0.01 | 99 | 1013.3 |
| 20260510122134 | 49 | 114 | 4.0 | 6.0 | 0.00 | 0.00 | 0.01 | 99 | 1013.3 |
| 20260510121132 | 49 | 158 | 5.0 | 7.0 | 0.00 | 0.00 | 0.01 | 99 | 1013.3 |
| 20260510120631 | 49 | 163 | 4.0 | 5.0 | 0.00 | 0.00 | 0.01 | 99 | 1013.3 |
| 20260510120134 | 49 | 163 | 6.0 | 7.0 | 0.00 | 0.00 | 0.01 | 99 | 1013.3 |
| 20260510115631 | 49 | 144 | 5.0 | 8.0 | 0.00 | 0.00 | 0.01 | 99 | 1013.3 |
| 20260510115131 | 48 | 220 | 4.0 | 6.0 | 0.00 | 0.00 | 0.01 | 99 | 1013.3 |
| 20260510114131 | 48 | 37 | 2.0 | 3.0 | 0.00 | 0.00 | 0.01 | 99 | 1013.3 |
| 20260510113631 | 48 | 22 | 2.0 | 3.0 | 0.00 | 0.00 | 0.01 | 99 | 1013.3 |
| 20260510113132 | 48 | 136 | 4.0 | 7.0 | 0.00 | 0.00 | 0.01 | 99 | 1013.3 |
| 20260510112733 | 48 | 104 | 3.0 | 6.0 | 0.00 | 0.00 | 0.01 | 99 | 1013.3 |
| 20260510112129 | 48 | 143 | 5.0 | 6.0 | 0.00 | 0.00 | 0.01 | 99 | 1013.3 |
| 20260510111628 | 48 | 29 | 2.0 | 3.0 | 0.00 | 0.00 | 0.01 | 99 | 1013.3 |
| 20260510111130 | 48 | 102 | 3.0 | 6.0 | 0.00 | 0.00 | 0.01 | 99 | 1013.1 |
| 20260510110627 | 48 | 109 | 3.0 | 5.0 | 0.00 | 0.00 | 0.01 | 99 | 1013.0 |
| 20260510110130 | 48 | 317 | 3.0 | 5.0 | 0.00 | 0.00 | 0.01 | 99 | 1013.0 |
| 20260510105627 | 48 | 200 | 5.0 | 7.0 | 0.00 | 0.00 | 0.01 | 99 | 1013.0 |
| 20260510105127 | 48 | 115 | 9.0 | 9.0 | 0.00 | 0.00 | 0.01 | 99 | 1012.6 |
| 20260510104629 | 48 | 316 | 3.0 | 3.0 | 0.00 | 0.00 | 0.01 | 99 | 1012.6 |
| 20260510104127 | 48 | 312 | 2.0 | 2.0 | 0.00 | 0.00 | 0.01 | 99 | 1012.6 |
| 20260510103626 | 48 | 150 | 5.0 | 7.0 | 0.00 | 0.00 | 0.01 | 99 | 1012.6 |
| 20260510103128 | 48 | 62 | 3.0 | 3.0 | 0.00 | 0.00 | 0.01 | 99 | 1012.6 |
| 20260510102626 | 48 | 239 | 3.0 | 5.0 | 0.00 | 0.00 | 0.01 | 99 | 1012.3 |
| 20260510102126 | 48 | 154 | 3.0 | 6.0 | 0.00 | 0.00 | 0.01 | 99 | 1012.3 |
| 20260510101626 | 48 | 349 | 2.0 | 6.0 | 0.00 | 0.00 | 0.01 | 99 | 1012.3 |
| 20260510101124 | 48 | 164 | 6.0 | 11.0 | 0.00 | 0.00 | 0.01 | 99 | 1011.9 |
| 20260510100623 | 48 | 238 | 4.0 | 7.0 | 0.00 | 0.00 | 0.01 | 99 | 1011.7 |
| 20260510100225 | 48 | 124 | 5.0 | 9.0 | 0.00 | 0.00 | 0.01 | 99 | 1011.6 |
| 20260510095625 | 48 | 28 | 3.0 | 5.0 | 0.00 | 0.00 | 0.01 | 99 | 1011.9 |
| 20260510095223 | 48 | 158 | 5.0 | 7.0 | 0.00 | 0.00 | 0.01 | 99 | 1011.6 |
| 20260510094622 | 48 | 163 | 5.0 | 7.0 | 0.00 | 0.00 | 0.01 | 99 | 1011.6 |
| 20260510094121 | 48 | 282 | 4.0 | 6.0 | 0.00 | 0.00 | 0.01 | 99 | 1011.6 |
| 20260510093622 | 48 | 135 | 3.0 | 5.0 | 0.00 | 0.00 | 0.01 | 99 | 1011.7 |
| 20260510093123 | 48 | 186 | 4.0 | 6.0 | 0.00 | 0.00 | 0.01 | 99 | 1011.7 |
| 20260510092622 | 48 | 140 | 6.0 | 7.0 | 0.00 | 0.00 | 0.01 | 99 | 1011.6 |
| 20260510092120 | 48 | 296 | 2.0 | 3.0 | 0.00 | 0.00 | 0.01 | 99 | 1011.6 |
| 20260510091621 | 48 | 136 | 4.0 | 5.0 | 0.00 | 0.00 | 0.01 | 99 | 1011.4 |
| 20260510091120 | 48 | 215 | 4.0 | 8.0 | 0.00 | 0.00 | 0.01 | 99 | 1011.6 |
| 20260510090619 | 48 | 156 | 2.0 | 6.0 | 0.00 | 0.00 | 0.01 | 99 | 1011.6 |
| 20260510090121 | 48 | 5 | 2.0 | 3.0 | 0.00 | 0.00 | 0.01 | 99 | 1011.6 |
| 20260510085119 | 48 | 185 | 6.0 | 8.0 | 0.00 | 0.00 | 0.01 | 99 | 1011.2 |
| 20260510084620 | 48 | 42 | 2.0 | 5.0 | 0.00 | 0.00 | 0.01 | 99 | 1011.6 |
| 20260510084117 | 48 | 118 | 3.0 | 6.0 | 0.00 | 0.00 | 0.01 | 99 | 1011.9 |
| 20260510083616 | 48 | 135 | 4.0 | 7.0 | 0.00 | 0.00 | 0.01 | 99 | 1011.9 |
| 20260510083118 | 48 | 319 | 1.0 | 3.0 | 0.00 | 0.00 | 0.01 | 99 | 1011.9 |
| 20260510082617 | 48 | 343 | 0.0 | 1.0 | 0.00 | 0.00 | 0.01 | 99 | 1011.9 |
| 20260510082118 | 48 | 227 | 3.0 | 3.0 | 0.00 | 0.00 | 0.01 | 99 | 1012.3 |
| 20260510081617 | 48 | 123 | 3.0 | 5.0 | 0.00 | 0.00 | 0.01 | 99 | 1012.3 |
| 20260510081145 | 48 | 58 | 3.0 | 5.0 | 0.00 | 0.00 | 0.01 | 99 | 1012.3 |
| 20260510080646 | 48 | 107 | 4.0 | 5.0 | 0.00 | 0.00 | 0.01 | 99 | 1011.9 |
| 20260510080145 | 48 | 8 | 2.0 | 3.0 | 0.00 | 0.00 | 0.01 | 99 | 1011.9 |
| 20260510075645 | 48 | 8 | 1.0 | 2.0 | 0.00 | 0.00 | 0.01 | 99 | 1011.9 |
| 20260510075144 | 48 | 340 | 2.0 | 2.0 | 0.00 | 0.00 | 0.01 | 99 | 1012.3 |
| 20260510074645 | 48 | 354 | 2.0 | 2.0 | 0.00 | 0.00 | 0.01 | 99 | 1012.3 |
| 20260510074144 | 48 | 21 | 2.0 | 3.0 | 0.00 | 0.00 | 0.01 | 99 | 1011.9 |
| 20260510073744 | 48 | 39 | 3.0 | 5.0 | 0.00 | 0.00 | 0.01 | 99 | 1011.9 |
| 20260510073143 | 48 | 306 | 2.0 | 2.0 | 0.00 | 0.00 | 0.01 | 99 | 1011.9 |
| 20260510072644 | 48 | 28 | 2.0 | 3.0 | 0.00 | 0.00 | 0.01 | 99 | 1011.9 |
| 20260510072143 | 48 | 314 | 1.0 | 2.0 | 0.00 | 0.00 | 0.01 | 99 | 1011.9 |
| 20260510071642 | 48 | 204 | 1.0 | 2.0 | 0.00 | 0.00 | 0.01 | 99 | 1011.9 |
| 20260510071144 | 48 | 316 | 0.0 | 1.0 | 0.00 | 0.00 | 0.01 | 99 | 1011.9 |
| 20260510070141 | 48 | 2 | 2.0 | 2.0 | 0.00 | 0.00 | 0.01 | 99 | 1011.6 |
| 20260510065741 | 48 | 325 | 2.0 | 3.0 | 0.00 | 0.00 | 0.01 | 99 | 1011.9 |
| 20260510065140 | 48 | 330 | 1.0 | 1.0 | 0.00 | 0.00 | 0.01 | 99 | 1011.9 |
| 20260510064741 | 48 | 17 | 2.0 | 3.0 | 0.00 | 0.00 | 0.01 | 99 | 1011.9 |
| 20260510063639 | 48 | 359 | 1.0 | 2.0 | 0.00 | 0.00 | 0.01 | 99 | 1011.7 |
| 20260510063138 | 48 | 5 | 3.0 | 3.0 | 0.00 | 0.00 | 0.01 | 99 | 1011.9 |
| 20260510062639 | 48 | 7 | 2.0 | 2.0 | 0.00 | 0.00 | 0.01 | 99 | 1011.9 |
| 20260510062139 | 48 | 261 | 3.0 | 5.0 | 0.00 | 0.00 | 0.01 | 99 | 1011.9 |
| 20260510061638 | 48 | 352 | 1.0 | 1.0 | 0.00 | 0.00 | 0.01 | 99 | 1012.1 |
| 20260510061137 | 48 | 297 | 1.0 | 2.0 | 0.00 | 0.00 | 0.01 | 99 | 1011.9 |
| 20260510060636 | 48 | 28 | 2.0 | 2.0 | 0.00 | 0.00 | 0.01 | 99 | 1011.9 |
| 20260510060137 | 48 | 210 | 2.0 | 5.0 | 0.00 | 0.00 | 0.01 | 99 | 1011.9 |
| 20260510055638 | 48 | 331 | 2.0 | 2.0 | 0.00 | 0.00 | 0.01 | 99 | 1012.3 |
| 20260510055136 | 48 | 332 | 2.0 | 3.0 | 0.00 | 0.00 | 0.01 | 99 | 1011.9 |
| 20260510054637 | 48 | 356 | 1.0 | 2.0 | 0.00 | 0.00 | 0.01 | 99 | 1011.9 |
| 20260510054136 | 48 | 20 | 2.0 | 2.0 | 0.00 | 0.00 | 0.01 | 99 | 1011.9 |
| 20260510053635 | 48 | 2 | 1.0 | 2.0 | 0.00 | 0.00 | 0.01 | 99 | 1011.9 |
| 20260510053137 | 48 | 0.0 | 0.0 | 0.00 | 0.00 | 0.01 | 99 | 1012.3 | |
| 20260510052635 | 48 | 0.0 | 0.0 | 0.00 | 0.00 | 0.01 | 99 | 1011.9 | |
| 20260510052237 | 48 | 0.0 | 0.0 | 0.00 | 0.00 | 0.01 | 99 | 1012.3 | |
| 20260510051634 | 48 | 0.0 | 0.0 | 0.00 | 0.00 | 0.01 | 99 | 1012.3 | |
| 20260510051133 | 48 | 0.0 | 0.0 | 0.00 | 0.00 | 0.01 | 99 | 1012.3 | |
| 20260510050632 | 48 | 347 | 0.0 | 1.0 | 0.00 | 0.00 | 0.01 | 99 | 1012.3 |
| 20260510050234 | 47 | 337 | 1.0 | 2.0 | 0.00 | 0.00 | 0.01 | 99 | 1012.3 |
| 20260510045636 | 47 | 356 | 0.0 | 1.0 | 0.00 | 0.00 | 0.01 | 99 | 1012.1 |
| 20260510045132 | 47 | 348 | 1.0 | 1.0 | 0.00 | 0.00 | 0.01 | 99 | 1012.3 |
| 20260510044631 | 47 | 14 | 1.0 | 2.0 | 0.00 | 0.00 | 0.01 | 99 | 1012.3 |
| 20260510044132 | 47 | 348 | 1.0 | 1.0 | 0.00 | 0.00 | 0.01 | 99 | 1012.4 |
| 20260510043632 | 47 | 351 | 1.0 | 1.0 | 0.00 | 0.00 | 0.01 | 99 | 1012.3 |
| 20260510043131 | 47 | 354 | 1.0 | 1.0 | 0.00 | 0.00 | 0.01 | 99 | 1012.3 |
| 20260510042630 | 47 | 41 | 2.0 | 3.0 | 0.00 | 0.00 | 0.00 | 99 | 1012.6 |
| 20260510042129 | 47 | 334 | 1.0 | 2.0 | 0.00 | 0.00 | 0.00 | 99 | 1012.3 |
| 20260510041630 | 47 | 16 | 2.0 | 2.0 | 0.00 | 0.00 | 0.00 | 99 | 1012.3 |
| 20260510041130 | 47 | 358 | 1.0 | 2.0 | 0.00 | 0.00 | 0.00 | 99 | 1012.6 |
| 20260510040629 | 47 | 347 | 1.0 | 1.0 | 0.00 | 0.00 | 0.00 | 99 | 1012.3 |
| 20260510040128 | 47 | 350 | 1.0 | 1.0 | 0.00 | 0.00 | 0.00 | 99 | 1012.3 |
| 20260510035730 | 47 | 35 | 2.0 | 3.0 | 0.00 | 0.00 | 0.48 | 99 | 1012.3 |
| 20260510035128 | 47 | 18 | 2.0 | 3.0 | 0.00 | 0.00 | 0.48 | 99 | 1012.6 |
| 20260510034628 | 47 | 11 | 1.0 | 2.0 | 0.00 | 0.00 | 0.48 | 99 | 1012.4 |
| 20260510034127 | 47 | 30 | 3.0 | 3.0 | 0.00 | 0.00 | 0.48 | 99 | 1012.6 |
| 20260510033628 | 47 | 81 | 4.0 | 5.0 | 0.00 | 0.00 | 0.48 | 99 | 1012.3 |
| 20260510033127 | 47 | 357 | 1.0 | 1.0 | 0.00 | 0.00 | 0.48 | 99 | 1012.6 |
| 20260510032626 | 47 | 31 | 2.0 | 3.0 | 0.00 | 0.00 | 0.48 | 99 | 1012.3 |
| 20260510032125 | 47 | 360 | 1.0 | 2.0 | 0.00 | 0.00 | 0.48 | 99 | 1012.3 |
| 20260510031625 | 47 | 302 | 2.0 | 3.0 | 0.00 | 0.00 | 0.48 | 99 | 1012.3 |
| 20260510031126 | 47 | 340 | 1.0 | 1.0 | 0.00 | 0.00 | 0.48 | 99 | 1012.6 |
| 20260510030625 | 47 | 51 | 3.0 | 3.0 | 0.00 | 0.00 | 0.48 | 99 | 1012.3 |
| 20260510030124 | 47 | 354 | 1.0 | 1.0 | 0.00 | 0.00 | 0.48 | 99 | 1012.6 |
| 20260510025625 | 47 | 341 | 1.0 | 1.0 | 0.00 | 0.00 | 0.48 | 99 | 1012.4 |
| 20260510025126 | 47 | 287 | 2.0 | 3.0 | 0.00 | 0.00 | 0.48 | 99 | 1012.3 |
| 20260510024626 | 47 | 63 | 2.0 | 3.0 | 0.00 | 0.00 | 0.48 | 99 | 1012.3 |
| 20260510023625 | 47 | 48 | 2.0 | 3.0 | 0.00 | 0.00 | 0.48 | 99 | 1012.6 |
| 20260510023124 | 47 | 32 | 2.0 | 2.0 | 0.00 | 0.00 | 0.48 | 99 | 1012.6 |
| 20260510022623 | 47 | 351 | 1.0 | 1.0 | 0.00 | 0.00 | 0.48 | 99 | 1013.0 |
| 20260510022122 | 47 | 14 | 2.0 | 3.0 | 0.00 | 0.00 | 0.48 | 99 | 1013.0 |
| 20260510021623 | 47 | 346 | 1.0 | 2.0 | 0.00 | 0.00 | 0.48 | 99 | 1013.0 |
| 20260510021122 | 47 | 15 | 2.0 | 3.0 | 0.00 | 0.00 | 0.48 | 99 | 1013.0 |
| 20260510020120 | 47 | 360 | 1.0 | 2.0 | 0.00 | 0.00 | 0.48 | 99 | 1013.0 |
| 20260510015622 | 47 | 345 | 1.0 | 1.0 | 0.00 | 0.00 | 0.48 | 99 | 1013.0 |
| 20260510015121 | 47 | 349 | 1.0 | 1.0 | 0.00 | 0.00 | 0.48 | 99 | 1013.0 |
| 20260510014620 | 47 | 347 | 1.0 | 1.0 | 0.00 | 0.00 | 0.48 | 99 | 1013.0 |
| 20260510013619 | 47 | 358 | 2.0 | 2.0 | 0.00 | 0.00 | 0.48 | 99 | 1013.0 |
| 20260510013120 | 47 | 350 | 1.0 | 1.0 | 0.00 | 0.00 | 0.48 | 99 | 1013.0 |
| 20260510012619 | 47 | 348 | 2.0 | 2.0 | 0.00 | 0.00 | 0.48 | 99 | 1013.0 |
| 20260510012118 | 47 | 65 | 3.0 | 6.0 | 0.00 | 0.00 | 0.48 | 99 | 1012.6 |
| 20260510011619 | 47 | 20 | 2.0 | 3.0 | 0.00 | 0.00 | 0.48 | 99 | 1013.0 |
| 20260510011118 | 47 | 356 | 1.0 | 1.0 | 0.00 | 0.00 | 0.48 | 99 | 1012.6 |
| 20260510010618 | 47 | 326 | 0.0 | 1.0 | 0.00 | 0.00 | 0.48 | 99 | 1013.0 |
| 20260510010220 | 47 | 326 | 2.0 | 2.0 | 0.00 | 0.00 | 0.48 | 99 | 1012.6 |
| 20260510005616 | 47 | 345 | 1.0 | 1.0 | 0.00 | 0.00 | 0.48 | 99 | 1012.6 |
| 20260510004646 | 47 | 342 | 1.0 | 2.0 | 0.00 | 0.00 | 0.48 | 99 | 1012.6 |
| 20260510004146 | 47 | 5 | 2.0 | 2.0 | 0.00 | 0.00 | 0.48 | 99 | 1012.6 |
| 20260510003646 | 47 | 46 | 2.0 | 3.0 | 0.00 | 0.00 | 0.48 | 99 | 1012.6 |
| 20260510003144 | 47 | 202 | 3.0 | 3.0 | 0.00 | 0.00 | 0.48 | 99 | 1012.6 |
| 20260510002647 | 47 | 349 | 1.0 | 2.0 | 0.00 | 0.00 | 0.48 | 99 | 1012.4 |
| 20260510002144 | 47 | 349 | 1.0 | 1.0 | 0.00 | 0.00 | 0.48 | 99 | 1012.3 |
| 20260510001643 | 47 | 128 | 4.0 | 5.0 | 0.00 | 0.00 | 0.48 | 99 | 1012.3 |
| 20260510001143 | 47 | 42 | 2.0 | 3.0 | 0.00 | 0.00 | 0.48 | 99 | 1012.3 |
| 20260510000645 | 47 | 193 | 4.0 | 6.0 | 0.00 | 0.00 | 0.48 | 99 | 1012.6 |
| 20260510000143 | 47 | 135 | 4.0 | 5.0 | 0.00 | 0.00 | 0.48 | 99 | 1012.3 |
| 20260509235644 | 47 | 294 | 2.0 | 3.0 | 0.00 | 0.00 | 0.48 | 99 | 1012.3 |
| 20260509235143 | 47 | 96 | 2.0 | 5.0 | 0.00 | 0.00 | 0.48 | 99 | 1012.3 |
| 20260509234646 | 46 | 48 | 2.0 | 3.0 | 0.00 | 0.00 | 0.48 | 99 | 1012.3 |
| 20260509234142 | 46 | 264 | 3.0 | 3.0 | 0.00 | 0.00 | 0.48 | 99 | 1012.3 |
| 20260509233641 | 46 | 303 | 1.0 | 2.0 | 0.00 | 0.00 | 0.48 | 99 | 1012.3 |
| 20260509233145 | 46 | 55 | 2.0 | 3.0 | 0.00 | 0.00 | 0.48 | 99 | 1012.3 |
| 20260509232646 | 46 | 6 | 2.0 | 2.0 | 0.00 | 0.00 | 0.48 | 99 | 1012.3 |
| 20260509232141 | 46 | 32 | 2.0 | 3.0 | 0.00 | 0.00 | 0.48 | 99 | 1012.3 |
| 20260509231640 | 46 | 34 | 2.0 | 3.0 | 0.00 | 0.00 | 0.48 | 99 | 1011.9 |
| 20260509230640 | 46 | 26 | 1.0 | 2.0 | 0.00 | 0.00 | 0.48 | 99 | 1012.3 |
| 20260509230241 | 46 | 341 | 2.0 | 3.0 | 0.00 | 0.00 | 0.48 | 99 | 1012.3 |
| 20260509225638 | 46 | 235 | 3.0 | 5.0 | 0.00 | 0.00 | 0.48 | 99 | 1012.3 |
| 20260509224657 | 46 | 89 | 3.0 | 6.0 | 0.00 | 0.00 | 0.48 | 99 | 1012.3 |
| 20260509223136 | 46 | 23 | 2.0 | 2.0 | 0.00 | 0.00 | 0.48 | 99 | 1012.3 |
| 20260509222638 | 46 | 319 | 1.0 | 2.0 | 0.00 | 0.00 | 0.48 | 99 | 1012.3 |
| 20260509222137 | 46 | 14 | 2.0 | 3.0 | 0.00 | 0.00 | 0.48 | 99 | 1012.3 |
| 20260509221135 | 46 | 342 | 1.0 | 2.0 | 0.00 | 0.00 | 0.48 | 99 | 1012.3 |
| 20260509220636 | 46 | 308 | 2.0 | 3.0 | 0.00 | 0.00 | 0.48 | 99 | 1012.3 |
| 20260509220135 | 46 | 99 | 4.0 | 7.0 | 0.00 | 0.00 | 0.48 | 99 | 1012.3 |
| 20260509215737 | 46 | 344 | 1.0 | 2.0 | 0.00 | 0.00 | 0.48 | 99 | 1012.3 |
| 20260509215134 | 46 | 134 | 4.0 | 7.0 | 0.00 | 0.00 | 0.48 | 99 | 1012.3 |
| 20260509214633 | 46 | 79 | 3.0 | 5.0 | 0.00 | 0.00 | 0.48 | 99 | 1012.4 |
| 20260509214134 | 46 | 140 | 4.0 | 6.0 | 0.00 | 0.00 | 0.48 | 99 | 1012.6 |
| 20260509213635 | 46 | 138 | 4.0 | 6.0 | 0.00 | 0.00 | 0.48 | 99 | 1012.6 |
| 20260509213133 | 45 | 88 | 3.0 | 5.0 | 0.00 | 0.00 | 0.48 | 99 | 1012.6 |
| 20260509212632 | 45 | 323 | 2.0 | 3.0 | 0.00 | 0.00 | 0.48 | 99 | 1012.6 |
| 20260509212134 | 45 | 304 | 2.0 | 3.0 | 0.00 | 0.00 | 0.48 | 99 | 1012.6 |
| 20260509211632 | 45 | 66 | 2.0 | 3.0 | 0.00 | 0.00 | 0.48 | 99 | 1012.8 |
| 20260509211131 | 45 | 257 | 2.0 | 2.0 | 0.00 | 0.00 | 0.48 | 99 | 1012.6 |
| 20260509210632 | 45 | 31 | 2.0 | 3.0 | 0.00 | 0.00 | 0.48 | 99 | 1012.6 |
| 20260509210132 | 45 | 63 | 3.0 | 3.0 | 0.00 | 0.00 | 0.48 | 99 | 1013.0 |
| 20260509205631 | 45 | 158 | 4.0 | 6.0 | 0.00 | 0.00 | 0.48 | 99 | 1013.0 |
| 20260509205130 | 45 | 113 | 3.0 | 5.0 | 0.00 | 0.00 | 0.48 | 99 | 1013.0 |